Location: Zagreb
(45.8000°N, 16.0000°E)
Time: 04:04:46
(UTC+02:00)

ISS - Visible Passes

Search period start: 21 September 2014 00:00
Search period end: 01 October 2014 00:00
Orbit: 413 x 417 km, 51.6° (Epoch: 20 September)

Date Brightness Start Highest point End Pass type
(mag) Time Alt. Az. Time Alt. Az. Time Alt. Az.
21 Sep -0.6 03:56:55 21° NE 03:56:55 21° NE 03:58:09 10° ENE visible
21 Sep -1.8 05:29:47 15° WNW 05:31:58 29° N 05:34:56 10° ENE visible
22 Sep -2.0 04:42:52 32° NNW 04:42:56 32° N 04:45:58 10° NE visible
23 Sep -0.4 03:55:55 18° NE 03:55:55 18° NE 03:57:01 10° NE visible
23 Sep -1.7 05:28:47 14° NW 05:31:08 29° N 05:34:07 10° ENE visible
24 Sep -1.7 04:41:49 28° N 04:42:00 28° N 04:44:58 10° ENE visible
24 Sep -2.4 06:15:57 10° WNW 06:19:12 48° NNE 06:22:26 10° E visible
25 Sep -0.3 03:54:51 16° NE 03:54:51 16° NE 03:55:50 10° ENE visible
25 Sep -2.0 05:27:43 15° NW 05:30:06 37° NNE 05:33:14 10° E visible
26 Sep -1.8 04:40:47 32° N 04:40:56 32° N 04:43:58 10° ENE visible
26 Sep -3.3 06:14:34 10° WNW 06:17:54 88° SSW 06:21:14 10° ESE visible
27 Sep -0.1 03:53:53 15° ENE 03:53:53 15° ENE 03:54:40 10° ENE visible
27 Sep -2.9 05:26:45 21° NW 05:28:48 62° NNE 05:32:06 10° ESE visible
28 Sep -2.2 04:39:55 43° NE 04:39:55 43° NE 04:42:50 10° E visible
28 Sep -2.6 06:13:10 10° WNW 06:16:17 38° SW 06:19:24 10° SSE visible
29 Sep 0.1 03:53:10 12° E 03:53:10 12° E 03:53:28 10° E visible
29 Sep -3.3 05:26:03 36° W 05:27:12 62° SSW 05:30:29 10° SE visible
30 Sep -1.7 04:39:25 32° ESE 04:39:25 32° ESE 04:41:21 10° ESE visible
30 Sep -1.5 06:12:19 11° W 06:14:20 16° SW 06:16:30 10° S visible
